Terminal Aerodrome Forecast
Issued by NWS Knoxville/Tri Cities, TN

Home | Current Version | Previous Version | Text Only | Print | Product List | Glossary On
Versions: 1 2 3 4 5 6 7 8 9 10 11 12 13 14 15 16 17 18 19 20 21 22 23 24 25 26 27 28 29 30
000
FTUS44 KMRX 241120
TAFCHA
TAF
KCHA 241120Z 2412/2512 14005KT P6SM SCT250
     FM241600 14012KT P6SM SCT250
     FM250100 14006KT P6SM SCT050
     FM250600 VRB03KT P6SM BKN040=

USA.gov is the U.S. government's official web portal to all federal, state and local government web resources and services.